Stations météo

réclame
Mon MeteoGroup
A12-CPP, Pays-Bas (6205): Température de l'air & dewpoint: 19.02.2018 10:00:00 - 25.02.2018 10:00:00 (CET)A12-CPP, Pays-Bas (6205): Vitesse du vent & gusts: 19.02.2018 10:00:00 - 25.02.2018 10:00:00 (CET)A12-CPP, Pays-Bas (6205): Direction du vent: 19.02.2018 10:00:00 - 25.02.2018 10:00:00 (CET)A12-CPP, Pays-Bas (6205): reduced air pressure: 19.02.2018 10:00:00 - 25.02.2018 10:00:00 (CET)A12-CPP, Pays-Bas (6205): visibility: 19.02.2018 10:00:00 - 25.02.2018 10:00:00 (CET)
Date & Time tt [°C] td [°C] ff [km/h] ff [knt] fx [km/h] fx [knt] dd ppp [hPa] vv [km]
25.02.2018 10:00:00 1,9 -4,9 16 9 29 16 ESE 1035,6 10
25.02.2018 09:00:00 1,9 -4,5 13 7 25 14 - 1035,3 10
25.02.2018 08:00:00 1,9 -5,4 15 8 25 14 E 1035,0 10
25.02.2018 07:00:00 1,8 -5,9 13 7 29 16 - 1034,7 10
25.02.2018 06:00:00 1,7 -5,8 18 10 32 18 SE 1034,3 10
25.02.2018 05:00:00 1,9 -4,4 16 9 32 18 ESE 1034,3 10
25.02.2018 04:00:00 1,9 -5,2 18 10 32 18 SE 1034,1 50
25.02.2018 03:00:00 1,9 -5,4 24 13 36 19 SE 1034,1 10
25.02.2018 02:00:00 2,0 -5,2 22 12 36 19 SE 1034,1 10
25.02.2018 01:00:00 2,1 -5,5 22 12 36 19 SE 1034,3 10
25.02.2018 00:00:00 2,2 -4,5 24 13 40 21 SE 1034,2 10
24.02.2018 23:00:00 2,5 -4,8 26 14 43 23 SE 1033,9 10
24.02.2018 22:00:00 2,5 -4,6 26 14 40 21 SE 1033,5 10
24.02.2018 21:00:00 2,5 -4,4 28 15 43 23 ESE 1033,4 10
24.02.2018 20:00:00 2,7 -3,6 34 18 43 23 E 1033,1 10
24.02.2018 19:00:00 2,8 -3,0 26 14 40 21 SE 1033,0 10
24.02.2018 18:00:00 3,1 -2,4 22 12 40 21 ESE 1032,7 50
24.02.2018 17:00:00 3,0 -2,5 28 15 40 21 SE 1032,4 10
24.02.2018 16:00:00 2,9 -2,2 26 14 40 21 SE 1032,4 10
24.02.2018 15:00:00 2,8 -1,4 26 14 40 21 SE 1032,4 10
24.02.2018 14:00:00 2,5 -2,3 31 17 40 21 SE 1032,4 10
24.02.2018 13:00:00 2,7 -1,9 34 18 47 25 SE 1032,2 10
24.02.2018 12:00:00 2,9 -1,7 31 17 43 23 ESE 1031,9 10
24.02.2018 11:00:00 2,8 -1,7 41 22 47 25 SE 1031,6 10
24.02.2018 10:00:00 2,9 -1,8 29 16 54 29 ESE 1031,4 10
24.02.2018 09:00:00 3,0 -1,9 39 21 47 25 ESE 1030,7 10
24.02.2018 08:00:00 3,3 -1,4 37 20 47 25 ESE 1030,0 10
24.02.2018 07:00:00 3,3 -0,8 39 21 47 25 ESE 1029,5 10
24.02.2018 06:00:00 3,3 -1,5 35 19 43 23 ESE 1029,1 10
24.02.2018 05:00:00 3,4 -1,6 35 19 47 25 ESE 1028,6 10
24.02.2018 04:00:00 3,4 -1,2 41 22 50 27 SE 1028,3 10
24.02.2018 03:00:00 3,6 -3,4 42 23 54 29 SE 1028,0 10
24.02.2018 02:00:00 3,3 -3,5 41 22 50 27 SE 1027,9 10
24.02.2018 01:00:00 3,4 -1,8 37 20 47 25 ESE 1027,9 10
24.02.2018 00:00:00 3,3 -2,5 29 16 43 23 ESE 1027,8 10
23.02.2018 23:00:00 3,0 -2,3 34 18 43 23 ESE 1027,9 10
23.02.2018 22:00:00 3,0 -2,6 34 18 43 23 ESE 1027,6 10
23.02.2018 21:00:00 3,0 -3,2 26 14 36 19 ESE 1027,5 10
23.02.2018 20:00:00 3,1 -3,1 22 12 36 19 ESE 1027,4 48
23.02.2018 19:00:00 2,8 -3,5 18 10 29 16 SE 1027,5 10
23.02.2018 18:00:00 3,1 -2,9 16 9 29 16 SE 1027,1 10
23.02.2018 17:00:00 3,2 -2,9 11 6 25 14 - 1027,0 10
23.02.2018 16:00:00 3,4 -2,9 11 6 25 14 SE 1027,0 50
23.02.2018 15:00:00 3,4 -2,4 16 9 25 14 - 1027,2 10
23.02.2018 14:00:00 3,5 -2,8 14 8 25 14 SE 1027,2 49
23.02.2018 13:00:00 3,5 -2,3 24 13 29 16 SSE 1027,5 10
23.02.2018 12:00:00 3,6 -1,9 28 15 29 16 SSE 1027,5 10
23.02.2018 11:00:00 3,8 -1,7 28 15 29 16 SSE 1027,5 10
23.02.2018 10:00:00 3,8 -1,6 22 12 25 14 SSE 1027,7 10
23.02.2018 09:00:00 3,8 -1,1 22 12 25 14 SSE 1027,3 35
23.02.2018 08:00:00 3,7 0,4 16 9 25 14 SSE 1027,1 10
23.02.2018 07:00:00 4,1 -0,1 18 10 22 12 SSE 1026,7 10
23.02.2018 06:00:00 4,3 0,3 16 9 18 10 SSE 1026,5 10
23.02.2018 05:00:00 4,3 0,2 15 8 18 10 SSE 1026,4 10
23.02.2018 04:00:00 4,4 -0,3 13 7 14 8 S 1026,4 10
23.02.2018 03:00:00 4,3 0,7 9 5 14 8 SSE 1026,7 10
23.02.2018 02:00:00 3,8 1,0 4 2 11 6 - 1027,0 10
23.02.2018 01:00:00 4,0 0,8 9 5 14 8 - 1027,0 10
23.02.2018 00:00:00 4,0 0,4 16 9 18 10 SSE 1027,0 10
22.02.2018 23:00:00 4,4 0,8 4 2 7 4 - 1027,1 10
22.02.2018 22:00:00 4,4 0,7 4 2 7 4 - 1027,4 10
22.02.2018 21:00:00 4,5 0,8 8 4 11 6 ENE 1027,2 10
22.02.2018 20:00:00 4,6 1,0 7 4 11 6 ENE 1027,2 49
22.02.2018 19:00:00 4,6 0,1 5 3 11 6 - 1027,0 10
22.02.2018 18:00:00 4,6 0,3 5 3 7 4 NNW 1027,0 10
22.02.2018 17:00:00 4,8 0,2 5 3 11 6 WNW 1027,1 10
22.02.2018 16:00:00 4,7 0,2 7 4 11 6 W 1027,1 25
22.02.2018 15:00:00 4,6 0,0 9 5 11 6 W 1027,3 10
22.02.2018 14:00:00 4,6 0,2 8 4 11 6 W 1027,7 10
22.02.2018 13:00:00 4,5 0,1 9 5 11 6 WSW 1028,1 10
22.02.2018 12:00:00 4,4 -0,3 9 5 14 8 WSW 1028,2 10
22.02.2018 11:00:00 4,3 0,1 11 6 14 8 WSW 1028,3 10
22.02.2018 10:00:00 4,3 0,4 13 7 14 8 WSW 1028,1 10
22.02.2018 09:00:00 4,5 0,7 9 5 11 6 WSW 1028,0 10
22.02.2018 08:00:00 4,5 0,9 8 4 7 4 WSW 1027,9 10
22.02.2018 07:00:00 4,5 0,9 9 5 11 6 WSW 1027,7 10
22.02.2018 06:00:00 4,5 0,7 5 3 7 4 W 1027,8 10
22.02.2018 05:00:00 4,5 0,8 8 4 11 6 WSW 1027,9 10
22.02.2018 04:00:00 4,4 0,5 11 6 14 8 SW 1028,0 17
22.02.2018 03:00:00 4,4 0,6 15 8 14 8 SW 1027,9 10
22.02.2018 02:00:00 4,5 0,9 15 8 14 8 SW 1028,1 10
22.02.2018 01:00:00 4,5 1,0 11 6 14 8 SW 1028,4 10
22.02.2018 00:00:00 4,7 1,3 9 5 11 6 SW 1028,6 10
21.02.2018 23:00:00 4,8 1,4 8 4 11 6 SSW 1028,6 10
21.02.2018 22:00:00 4,8 -0,7 5 3 7 4 SW 1028,5 10
21.02.2018 21:00:00 4,8 -0,9 4 2 7 4 - 1028,4 10
21.02.2018 20:00:00 4,8 -0,6 5 3 7 4 NNW 1028,1 10
21.02.2018 19:00:00 4,9 -0,4 4 2 7 4 - 1027,9 10
21.02.2018 18:00:00 5,0 -0,2 2 1 7 4 - 1027,5 10
21.02.2018 17:00:00 5,0 -0,4 4 2 11 6 - 1027,4 10
21.02.2018 16:00:00 5,2 -0,4 8 4 11 6 ENE 1027,4 10
21.02.2018 15:00:00 5,2 -0,4 5 3 11 6 - 1027,6 10
21.02.2018 14:00:00 5,1 -0,2 5 3 11 6 - 1028,1 10
21.02.2018 13:00:00 5,1 0,6 8 4 11 6 NE 1028,3 10
21.02.2018 12:00:00 5,0 1,0 7 4 25 14 NE 1028,4 16
21.02.2018 11:00:00 5,0 1,1 9 5 11 6 ENE 1028,3 10
21.02.2018 10:00:00 4,9 0,6 8 4 11 6 NE 1028,1 10
21.02.2018 09:00:00 5,0 0,8 13 7 14 8 NE 1027,5 10
21.02.2018 08:00:00 5,0 0,3 11 6 14 8 NE 1027,0 10
21.02.2018 07:00:00 5,0 -0,4 15 8 18 10 NNE 1026,9 10
21.02.2018 06:00:00 5,0 0,1 15 8 18 10 NNE 1027,0 10
21.02.2018 05:00:00 5,1 0,2 16 9 18 10 NE 1027,0 10
21.02.2018 04:00:00 4,8 1,3 9 5 11 6 N 1027,1 10
21.02.2018 03:00:00 4,7 0,9 5 3 7 4 - 1027,3 10
21.02.2018 02:00:00 4,8 1,0 5 3 14 8 - 1027,0 10
21.02.2018 01:00:00 4,5 0,7 16 9 18 10 SSE 1026,8 10
21.02.2018 00:00:00 4,4 1,0 18 10 22 12 SSE 1026,1 10
20.02.2018 23:00:00 4,4 0,6 15 8 25 14 SE 1025,9 10
20.02.2018 22:00:00 4,1 1,0 15 8 25 14 SE 1025,8 10
20.02.2018 21:00:00 4,4 1,7 16 9 29 16 - 1025,3 10
20.02.2018 20:00:00 4,7 2,8 11 6 14 8 ENE 1024,6 10
20.02.2018 19:00:00 4,5 2,8 5 3 11 6 - 1024,3 10
20.02.2018 18:00:00 4,4 2,9 13 7 14 8 NNW 1023,7 10
20.02.2018 17:00:00 4,4 2,8 4 2 11 6 - 1023,0 4,6
20.02.2018 16:00:00 4,3 3,2 11 6 18 10 SSE 1022,2 2,5
20.02.2018 15:00:00 4,7 2,8 16 9 18 10 SSE 1021,6 4,5
20.02.2018 14:00:00 4,7 3,1 21 11 22 12 SE 1021,2 5
20.02.2018 13:00:00 4,7 2,6 11 6 22 12 S 1021,1 7
20.02.2018 12:00:00 4,8 2,9 15 8 25 14 SSE 1020,6 4,8
20.02.2018 11:00:00 4,7 3,4 15 8 22 12 SE 1020,2 10
20.02.2018 10:00:00 4,5 3,2 11 6 22 12 ESE 1019,8 17
20.02.2018 09:00:00 4,6 3,2 15 8 22 12 SE 1019,5 10
20.02.2018 08:00:00 4,7 3,0 9 5 22 12 SE 1019,0 10
20.02.2018 07:00:00 4,7 2,7 13 7 22 12 SE 1019,0 10
20.02.2018 06:00:00 4,9 2,5 13 7 25 14 E 1018,9 10
20.02.2018 05:00:00 4,9 3,0 16 9 32 18 E 1019,1 9
20.02.2018 04:00:00 5,1 2,8 35 19 36 19 E 1019,1 10
20.02.2018 03:00:00 4,9 3,4 37 20 36 19 E 1019,3 10
20.02.2018 02:00:00 5,3 3,1 37 20 36 19 E 1019,4 10
20.02.2018 01:00:00 5,5 3,4 31 17 36 19 E 1019,3 10
20.02.2018 00:00:00 5,9 4,1 15 8 14 8 E 1019,3 10
19.02.2018 23:00:00 5,7 3,8 8 4 18 10 ESE 1019,1 10
19.02.2018 22:00:00 5,7 3,9 13 7 25 14 - 1018,6 10
19.02.2018 21:00:00 5,9 4,5 16 9 18 10 E 1019,0 10
19.02.2018 20:00:00 5,7 4,5 9 5 14 8 ESE 1018,7 10
19.02.2018 19:00:00 5,6 4,8 13 7 14 8 SSE 1018,4 3,2
19.02.2018 18:00:00 5,7 4,9 15 8 14 8 SSE 1018,0 3,7
19.02.2018 17:00:00 5,7 4,9 7 4 14 8 SE 1017,7 6
19.02.2018 16:00:00 5,7 4,8 7 4 11 6 ESE 1017,5 13
19.02.2018 15:00:00 5,8 4,8 13 7 14 8 SSE 1017,4 4,9
19.02.2018 14:00:00 5,8 4,9 11 6 14 8 SSE 1017,4 4,5
19.02.2018 13:00:00 5,8 5,0 13 7 18 10 S 1017,4 2,9
19.02.2018 12:00:00 5,7 4,9 16 9 22 12 - 1017,2 2,8
19.02.2018 11:00:00 5,8 4,7 21 11 22 12 SSE 1017,2 4,9
19.02.2018 10:00:00 5,7 4,4 21 11 18 10 SSE 1017,1 6

tt = Température de l'air
td = dewpoint
ff = Vitesse du vent
fx = gusts
dd = Direction du vent
ppp = reduced air pressure
vv = visibility

stations d'obs. à proximité